Theta_e
309 308 307 308 309 310 312 314 315 316 320 326 327 329 332 336 337 334 334 333 332 332 333 332 331 330 328 328 330 330 328 323 315 319 314 319 318 317 323 317 321 318 320
307 307 306 305 306 306 308 310 314 314 316 322 326 327 329 334 334 336 332 332 331 331 333 335 333 334 331 331 331 330 328 327 320 315 312 319 318 315 318 317 319 320 316
307 306 306 306 305 305 306 308 311 312 314 316 317 321 326 328 331 334 333 334 333 330 330 332 332 331 329 329 328 326 326 326 316 311 310 317 317 314 314 315 315 315 318
306 306 305 304 304 304 305 307 309 311 312 314 316 317 320 324 327 330 332 332 332 331 330 331 331 330 329 327 324 323 323 321 317 314 313 315 314 314 313 312 312 313 315
305 304 305 305 306 306 305 307 308 309 311 314 316 316 316 318 324 318 324 326 326 326 327 330 330 330 328 326 325 322 321 318 317 313 312 310 309 312 312 312 311 311 312
303 302 305 305 305 304 305 306 306 307 308 311 312 312 311 315 309 305 312 318 321 322 321 323 325 324 325 319 317 318 322 320 316 314 312 310 309 310 312 312 310 309 308
302 303 304 304 303 304 305 305 304 304 305 306 308 310 310 310 306 304 304 315 316 318 320 320 323 329 323 326 321 318 316 313 316 317 314 313 312 311 311 309 309 309 309
301 301 303 303 303 304 304 303 301 302 303 303 305 308 309 312 305 299 300 309 312 314 316 318 319 322 325 323 324 322 324 323 322 320 320 322 318 319 314 313 313 313 314
301 301 303 303 303 303 302 301 301 301 302 303 306 306 307 309 305 302 302 310 312 313 316 317 317 319 308 303 319 320 322 324 321 312 311 310 308 308 315 317 313 314 312
301 301 303 303 302 302 301 301 300 301 302 304 306 306 306 306 304 302 303 306 309 311 311 311 307 305 301 300 311 314 314 317 323 323 323 315 310 312 308 322 321 316 314
301 302 302 302 302 302 301 300 300 301 301 301 302 303 303 305 306 300 300 305 307 309 308 307 306 300 301 299 298 306 309 310 311 316 322 323 320 319 320 319 324 322 317
301 301 302 301 302 304 301 301 301 300 299 299 299 300 303 304 301 301 300 298 301 306 305 303 303 299 296 296 296 299 298 300 307 310 317 321 320 319 319 320 322 323 324
300 300 300 301 301 302 300 300 299 299 298 299 299 299 302 303 302 302 299 296 296 302 302 301 298 294 295 298 300 298 299 307 309 309 312 317 323 324 321 321 322 323 322
299 299 299 299 299 299 300 299 298 298 297 298 299 300 301 302 301 304 300 298 299 300 302 299 300 301 299 300 300 305 311 312 312 312 315 318 322 323 323 323 320 320 319
299 298 298 298 297 297 297 298 299 299 299 298 299 300 300 302 302 299 301 301 300 298 297 296 299 302 304 304 307 305 306 309 310 312 313 315 318 320 319 320 319 317 316
297 298 296 296 296 296 295 297 296 296 296 294 294 296 301 299 297 296 293 293 292 292 297 297 299 302 299 299 301 304 304 305 306 309 312 313 314 316 317 317 317 316 315
298 296 295 295 295 294 295 295 295 297 297 296 293 292 292 295 295 294 293 291 291 291 298 301 300 299 299 299 298 300 302 303 305 304 306 309 313 314 310 313 313 313 313
299 296 293 294 294 294 294 295 296 296 296 297 296 293 294 292 291 291 291 291 296 293 300 303 304 304 304 302 298 303 303 303 303 303 304 306 308 312 311 310 311 312 311
294 294 294 294 296 296 296 295 295 294 295 296 298 296 294 294 292 291 290 295 299 301 303 302 304 304 304 305 305 305 304 304 303 302 303 304 305 307 310 311 311 300 303
293 295 294 297 297 297 297 297 298 297 298 298 296 298 299 297 298 297 297 298 300 302 303 303 304 304 304 303 304 304 301 303 304 304 304 304 304 305 305 307 308 306 307
297 297 292 296 297 297 298 299 298 299 300 299 299 298 288 291 298 300 301 302 302 301 302 302 302 302 302 302 302 302 302 302 302 302 303 303 304 303 304 304 305 305 304
296 298 298 297 299 298 298 299 298 298 297 297 297 297 289 299 299 299 300 300 301 301 301 301 300 300 300 299 298 299 299 299 299 299 300 301 301 302 302 302 302 302 302
297 296 296 296 296 293 296 296 296 296 296 296 296 296 297 297 297 298 299 299 299 298 298 298 297 297 297 298 297 296 296 296 297 297 298 299 299 299 300 300 300 300 300
295 295 295 295 295 295 295 295 295 292 295 296 296 296 296 296 297 297 296 297 296 296 295 295 295 295 295 295 296 296 295 294 295 296 297 298 298 297 298 299 299 299 298
296 295 295 295 295 295 295 295 294 294 294 294 295 295 295 295 294 294 294 294 294 293 293 292 292 292 292 293 293 293 290 286 290 288 297 298 298 298 298 298 299 298 298
296 295 295 295 294 294 293 293 293 293 293 292 293 294 294 293 293 292 290 289 290 291 292 292 291 291 290 290 291 287 286 286 290 287 298 299 298 297 297 298 298 297 297
Wind_Speed
8 6 8 8 9 10 9 7 7 7 7 6 6 5 6 7 5 5 6 5 6 5 4 5 5 4 4 4 3 4 5 4 5 4 3 2 2 4 4 4 6 6 6
4 5 5 5 6 6 6 8 7 7 8 7 6 6 5 5 6 5 5 5 5 5 5 6 5 4 5 5 4 5 6 6 5 7 4 4 5 3 4 5 5 4 5
4 7 9 9 8 8 8 8 9 8 7 7 6 7 7 6 5 5 5 5 5 5 6 5 6 5 5 4 4 5 6 4 4 4 5 2 2 2 2 3 3 4 4
8 8 7 7 7 6 7 7 7 9 7 7 7 6 6 6 6 5 5 5 5 4 6 6 6 6 7 6 5 6 5 4 3 4 4 4 2 1 3 3 3 2 3
5 5 5 5 5 5 7 7 7 7 8 6 6 7 7 6 4 6 5 5 4 5 7 6 6 7 8 7 4 5 5 3 3 4 2 2 3 3 6 4 4 2 3
5 5 6 5 5 4 5 6 6 6 7 7 7 6 7 5 11 12 5 5 5 4 5 6 5 7 6 7 8 7 6 5 4 4 3 4 5 4 3 5 5 4 4
5 6 6 6 6 6 5 5 7 7 5 7 7 6 7 6 9 10 9 4 5 5 5 4 5 5 7 5 7 6 6 9 8 5 5 6 4 6 6 5 6 5 6
4 5 5 5 6 6 6 5 6 5 5 5 6 6 6 5 8 9 11 6 5 6 5 5 5 6 7 5 4 3 6 6 7 6 8 9 8 6 7 7 8 6 2
6 6 6 5 6 6 6 7 6 5 5 5 5 7 6 7 8 7 7 6 6 7 6 5 4 6 7 7 4 4 7 9 8 10 13 12 12 12 9 5 4 5 4
6 7 6 6 6 6 6 6 4 4 6 5 6 6 7 7 11 9 4 4 5 6 6 6 3 4 7 3 4 5 7 11 8 7 4 6 11 10 11 10 7 8 4
6 6 7 7 6 7 6 3 4 6 5 6 6 7 6 6 8 11 8 4 4 5 4 4 3 6 9 9 4 5 7 9 13 11 7 6 6 7 8 9 10 9 8
7 7 7 7 5 5 6 5 6 6 5 6 5 6 5 6 4 8 10 8 6 6 6 3 3 5 8 11 9 13 15 11 6 9 8 7 6 7 7 8 11 9 8
6 8 7 6 6 5 5 6 5 5 4 6 4 4 7 4 4 9 10 10 10 5 4 6 8 8 7 6 11 13 10 5 6 8 9 7 7 8 8 5 7 8 6
7 7 6 6 6 5 4 4 4 4 4 4 5 5 6 6 4 5 5 5 9 7 6 4 7 6 5 8 6 5 4 5 6 8 7 7 6 5 8 7 7 8 6
5 5 5 4 5 5 5 5 5 5 5 5 5 5 5 8 6 7 7 6 5 4 4 4 4 2 2 2 3 4 4 6 6 6 8 8 6 7 7 6 6 5 6
5 4 4 4 4 5 5 6 8 12 14 13 15 11 8 12 14 15 12 11 6 4 3 4 3 4 3 3 3 5 4 7 6 6 7 7 7 6 6 6 5 6 6
4 5 4 5 4 5 5 5 9 7 12 13 13 15 15 18 12 14 14 9 8 4 5 8 6 4 3 4 4 3 6 7 6 7 6 7 7 7 6 6 5 3 5
7 8 5 5 5 5 6 7 6 7 8 7 9 10 11 12 15 15 15 3 4 5 6 7 6 4 3 4 3 4 7 4 4 5 6 6 7 8 7 7 7 6 5
7 6 5 6 6 7 7 8 7 6 7 7 7 5 5 10 11 11 8 6 6 6 7 7 4 3 3 3 4 4 5 5 4 4 5 5 6 7 8 7 6 7 7
6 12 11 8 7 7 6 6 6 5 6 5 4 6 7 4 5 3 5 5 6 6 2 4 3 2 2 2 4 3 4 4 3 4 5 4 4 5 6 5 4 5 6
7 8 9 8 7 5 5 5 5 6 4 2 3 4 8 3 5 5 3 3 2 2 3 1 2 2 2 3 3 3 4 4 3 4 5 4 4 4 3 3 3 4 4
6 6 7 7 6 3 4 3 3 4 4 4 4 4 8 6 6 6 5 4 5 4 3 3 3 3 3 3 3 4 4 4 4 4 5 4 4 3 2 1 1 3 4
5 6 6 6 6 6 6 6 5 5 5 5 5 5 5 5 5 5 6 6 6 5 4 4 4 3 3 3 3 4 4 5 4 5 5 4 3 4 3 2 4 3 3
5 6 6 6 6 6 6 6 6 7 6 6 6 6 6 5 6 8 7 5 5 5 5 4 4 5 4 4 4 4 3 5 5 4 5 4 3 3 1 3 3 5 4
6 6 6 6 7 7 8 8 8 7 7 7 7 7 7 7 7 6 6 5 5 4 5 5 5 6 6 7 7 7 6 7 6 6 3 1 1 2 2 3 4 5 5
7 7 6 5 5 5 6 7 7 7 7 6 5 6 7 6 6 6 5 6 5 5 7 6 7 10 10 7 8 8 7 7 5 3 2 4 4 3 3 5 7 5 5
Wind_Direction
57 40 40 16 14 15 10 353 343 332 337 340 339 335 331 326 319 243 242 227 216 198 196 193 209 181 195 194 205 224 228 228 234 277 244 269 244 195 168 147 158 151 164
67 61 48 31 20 25 7 353 338 326 322 329 332 335 340 341 339 307 277 277 251 230 220 197 208 182 218 215 218 224 235 231 208 244 249 247 226 213 164 158 165 163 168
26 33 18 10 10 357 353 348 345 335 316 321 339 341 336 338 333 328 320 296 264 248 223 212 213 200 214 217 218 220 237 222 203 207 249 226 230 179 133 118 168 162 196
19 21 17 1 353 350 342 345 345 342 329 320 321 329 342 337 335 328 309 305 305 275 262 227 219 222 227 213 209 222 238 237 203 211 220 206 200 209 113 141 179 190 173
13 17 357 355 346 358 360 349 347 349 347 325 323 324 337 341 339 340 341 331 317 310 293 271 254 248 229 230 195 227 214 220 214 217 210 193 202 179 187 173 180 156 222
9 339 316 332 329 336 341 346 354 350 342 344 342 331 332 328 334 342 355 326 314 295 288 297 280 266 257 265 248 245 229 210 208 189 207 210 215 206 167 176 146 146 217
337 333 327 326 327 330 332 346 346 332 331 335 330 332 331 321 331 347 359 323 305 304 304 305 300 274 250 256 271 274 256 232 229 188 208 218 233 200 170 175 181 174 201
306 300 300 304 304 312 324 324 316 295 306 303 309 319 316 307 321 339 344 311 315 300 281 278 279 287 282 276 271 261 268 255 236 216 228 247 229 223 198 192 198 199 57
294 279 279 277 280 292 298 301 296 290 306 297 291 306 310 305 304 314 335 317 307 296 299 303 318 308 348 357 293 303 293 276 249 220 234 250 247 231 195 150 183 148 209
274 268 271 276 268 275 274 276 261 242 265 283 293 288 283 286 298 303 306 280 281 283 286 275 288 316 331 14 334 323 287 278 284 276 221 253 244 240 239 204 186 203 176
286 282 284 283 275 268 274 261 266 278 275 277 276 283 279 274 288 294 298 283 265 285 274 294 329 346 331 321 305 285 270 302 302 291 271 232 220 231 231 224 218 205 204
285 284 277 281 279 284 290 292 290 286 296 291 286 290 286 279 285 293 294 240 237 243 257 269 287 295 300 297 296 273 272 270 265 273 270 258 228 227 220 222 221 221 222
288 288 293 299 294 286 287 290 299 293 293 293 293 294 293 284 268 273 261 237 235 224 226 241 266 266 265 272 260 252 261 256 254 257 260 254 258 246 226 217 224 219 220
283 282 285 280 287 289 274 259 261 274 280 273 279 275 281 285 265 243 237 238 254 243 253 253 254 264 284 260 284 269 266 258 271 272 268 259 254 243 234 215 212 210 209
277 282 289 287 289 289 278 262 268 257 226 258 263 256 276 286 274 237 230 232 234 269 301 268 248 261 315 290 304 293 302 299 289 279 275 272 253 235 234 214 212 187 199
300 309 301 306 299 290 286 295 247 250 272 270 259 244 269 251 278 283 273 252 255 256 244 259 264 261 256 288 285 293 292 292 290 294 294 275 265 250 237 222 211 205 212
307 297 294 287 282 278 290 295 301 291 255 265 261 261 237 250 261 265 269 271 274 191 240 266 264 255 260 249 253 268 295 293 290 288 280 283 267 249 240 241 218 206 228
317 293 274 276 282 284 281 279 275 279 294 291 271 243 266 258 259 260 257 257 261 217 248 245 248 250 268 270 273 285 290 265 276 282 286 290 290 274 243 225 204 199 205
300 293 281 274 272 265 283 283 272 267 267 275 289 285 273 285 268 253 223 233 244 253 244 234 232 236 261 279 270 271 272 269 266 272 269 270 281 283 263 237 212 189 190
291 282 278 288 280 273 271 267 270 274 277 277 285 313 314 301 289 248 211 219 236 244 217 259 234 228 257 292 284 295 282 293 332 311 291 275 275 269 265 253 211 182 188
307 304 294 286 278 269 274 285 292 284 287 332 340 327 312 266 285 256 232 237 206 8 320 301 38 18 338 313 322 317 303 307 330 335 321 315 297 281 288 259 182 165 160
310 316 334 339 311 287 296 315 350 20 19 8 352 345 358 13 34 22 35 30 40 30 342 8 39 22 353 355 342 323 322 331 332 329 313 322 332 334 345 27 65 125 134
339 348 356 5 17 17 25 31 19 15 22 9 7 2 9 16 21 27 27 33 39 29 7 28 33 358 346 349 349 333 324 314 308 299 296 307 351 343 4 41 61 63 68
5 12 9 12 23 25 26 25 25 21 17 20 24 22 15 18 33 49 40 22 20 19 14 9 10 5 345 351 342 327 322 323 306 297 306 302 338 345 4 65 61 86 89
15 16 19 22 30 30 30 30 35 29 30 27 24 27 29 33 39 32 19 12 9 3 5 3 2 350 353 350 344 333 319 308 308 307 334 10 87 89 74 88 88 87 89
36 37 33 27 24 31 38 26 31 30 23 13 9 27 27 28 23 28 17 7 360 1 8 4 360 3 360 354 346 336 347 335 323 324 14 45 48 62 72 83 80 78 82